Flag for Angola Weather past 2 weeks in Huambo, Angola

Now
77 °F

Passing clouds.


Feels Like: 78 °F
Forecast: 57 / 80 °F
Wind: 7 mph from Southeast

Location: Luanda Airport

Current Time: Apr 18, 2015 at 4:50:45 AM

Latest Report: Apr 18, 2015 at 4:00 AM


Visibility: N/A

Pressure: 29.89 "Hg

Humidity: 89%

Dew point: 73 °F

Location of HuamboLocation

Historic Weather in Huambo — Graph

°F

Huambo temperature yesterday

Maximum temperature yesterday: 90 °F (at 11:00 AM)
Minimum temperature yesterday: 77 °F (at 6:00 AM)
Average temperature yesterday: 83 °F

Past Weeks' High & Low Weather Summary

 TemperatureHumidityPressure
High90 °F (Apr 8, 2:00 PM)94% (Apr 3, 5:00 AM)30.18 "Hg (Apr 3, 5:00 AM)
Low59 °F (Apr 6, 6:00 AM)42% (Apr 6, 6:00 AM)29.74 "Hg (Apr 15, 4:00 PM)
Average80 °F76%29.88 "Hg
* Reported Apr 3 4:00 AM — Apr 18 3:00 AM, Huambo, Weather by CustomWeather, © 2015

Note: Actual official high and low records may vary slightly from our data, if they occured in-between our weather recording intervals... More about our weather records

Advertising

Huambo weather history for previous 24 hours

 ConditionsComfort  
Time TempWeatherWind HumidityBarometerVisibility
3:00 AM
Sat, Apr 18
79 °FPassing clouds.7 mph89%29.89 "HgN/A
12:00 AM79 °FPassing clouds.7 mph84%29.95 "HgN/A
11:00 PM
Fri, Apr 17
79 °FPassing clouds.9 mph89%29.92 "HgN/A
10:00 PM79 °FPassing clouds.9 mph89%29.95 "HgN/A
9:00 PM81 °FPassing clouds.9 mph84%29.95 "HgN/A
8:00 PM81 °FPassing clouds.9 mph84%29.92 "HgN/A
4:00 PM88 °FBroken clouds.14 mph62%29.83 "HgN/A
3:00 PM88 °FScattered clouds.14 mph62%29.83 "HgN/A
2:00 PM90 °FScattered clouds.12 mph63%29.86 "HgN/A
1:00 PM90 °FPartly sunny.10 mph63%29.92 "HgN/A
12:00 PM90 °FBroken clouds.9 mph63%29.92 "HgN/A
11:00 AM90 °FBroken clouds.3 mph55%29.98 "HgN/A
10:00 AM88 °FPartly sunny.7 mph62%29.98 "HgN/A
9:00 AM86 °FBroken clouds.8 mph70%29.98 "HgN/A
8:00 AM82 °FBroken clouds.9 mph79%29.95 "HgN/A
7:00 AM79 °FBroken clouds.7 mph89%29.92 "HgN/A
6:00 AM77 °FPassing clouds.6 mph94%29.89 "HgN/A
5:00 AM79 °FPassing clouds.6 mph84%29.89 "HgN/A
4:00 AM79 °FPassing clouds.6 mph89%29.92 "HgN/A
Weather by CustomWeather, © 2015

See weather overviewHow to use our weather pages